Time,TemperatureF,DewpointF,PressureIn,WindDirection,WindDirectionDegrees,WindSpeedMPH,WindSpeedGustMPH,Humidity,HourlyPrecipIn,Conditions,Clouds,dailyrainin,SolarRadiationWatts/m^2,SoftwareType,DateUTC
2013-06-25 00:00:00,80.1,73.8,30.08,SE,145,3.0,5.0,81,0.00,,SCT025CU,0.08,0.00,VWS V14.00,2013-06-25 04:00:00,
2013-06-25 00:01:00,80.1,73.8,30.08,SE,145,3.0,4.0,81,0.00,,SCT025CU,0.08,0.00,VWS V14.00,2013-06-25 04:01:00,
2013-06-25 00:06:00,80.2,73.8,30.08,SE,145,2.0,5.0,81,0.00,,SCT025CU,0.00,0.00,VWS V14.00,2013-06-25 04:06:00,
2013-06-25 00:11:00,80.2,73.5,30.08,SE,145,3.0,5.0,80,0.00,,SCT025CU,0.00,0.00,VWS V14.00,2013-06-25 04:11:00,
2013-06-25 00:16:00,80.3,73.6,30.08,SE,145,4.0,5.0,80,0.00,,SCT025CU,0.00,0.00,VWS V14.00,2013-06-25 04:16:00,
2013-06-25 00:21:00,80.3,73.2,30.08,SE,145,3.0,5.0,79,0.00,,SCT025CU,0.00,0.00,VWS V14.00,2013-06-25 04:21:00,
2013-06-25 00:26:00,80.3,73.2,30.08,SE,145,3.0,3.0,79,0.00,,SCT025CU,0.00,0.00,VWS V14.00,2013-06-25 04:26:00,
2013-06-25 00:31:00,80.3,73.2,30.08,SE,145,0.0,4.0,79,0.00,,SCT025CU,0.00,0.00,VWS V14.00,2013-06-25 04:31:00,
2013-06-25 00:36:00,80.3,73.6,30.08,SE,145,0.0,0.0,80,0.00,,SCT025CU,0.00,0.00,VWS V14.00,2013-06-25 04:36:00,
2013-06-25 00:42:00,80.3,73.9,30.08,SE,145,0.0,0.0,81,0.00,,SCT025CU,0.00,0.00,VWS V14.00,2013-06-25 04:42:00,
2013-06-25 00:47:00,80.4,73.7,30.08,SE,145,0.0,0.0,80,0.00,,SCT025CU,0.00,0.00,VWS V14.00,2013-06-25 04:47:00,
2013-06-25 00:52:00,80.4,74.0,30.08,SE,145,0.0,2.0,81,0.00,,SCT025CU,0.00,0.00,VWS V14.00,2013-06-25 04:52:00,
2013-06-25 00:57:00,80.5,74.1,30.09,SE,146,4.0,7.0,81,0.00,,SCT025CU,0.00,0.00,VWS V14.00,2013-06-25 04:57:00,
2013-06-25 01:02:00,79.6,73.3,30.10,SE,141,6.0,11.0,81,0.00,,SCT025CU,0.00,0.00,VWS V14.00,2013-06-25 05:02:00,
2013-06-25 01:07:00,77.5,72.3,30.10,SE,128,5.0,7.0,84,0.00,,SCT025CU,0.00,0.00,VWS V14.00,2013-06-25 05:07:00,
2013-06-25 01:12:00,75.8,71.3,30.08,ENE,69,5.0,10.0,86,0.00,,SCT025CU,0.01,0.00,VWS V14.00,2013-06-25 05:12:00,
2013-06-25 01:17:00,75.1,71.0,30.08,ENE,69,4.0,5.0,87,0.00,,SCT025CU,0.01,0.00,VWS V14.00,2013-06-25 05:17:00,
2013-06-25 01:22:00,75.0,71.2,30.08,ENE,69,0.0,0.0,88,0.00,,SCT025CU,0.01,0.00,VWS V14.00,2013-06-25 05:22:00,
2013-06-25 01:27:00,75.1,71.6,30.08,ENE,69,0.0,0.0,89,0.00,,SCT025CU,0.01,0.00,VWS V14.00,2013-06-25 05:27:00,
2013-06-25 01:32:00,75.3,71.8,30.08,ENE,69,0.0,0.0,89,0.00,,SCT025CU,0.01,0.00,VWS V14.00,2013-06-25 05:32:00,
2013-06-25 01:37:00,75.5,72.0,30.07,ENE,69,0.0,0.0,89,0.00,,SCT025CU,0.01,0.00,VWS V14.00,2013-06-25 05:37:00,
2013-06-25 01:42:00,75.7,72.2,30.07,ENE,69,0.0,0.0,89,0.00,,SCT025CU,0.01,0.00,VWS V14.00,2013-06-25 05:42:00,
2013-06-25 01:47:00,75.9,72.4,30.07,ENE,69,0.0,0.0,89,0.00,,SCT025CU,0.01,0.00,VWS V14.00,2013-06-25 05:47:00,
2013-06-25 01:52:00,75.9,72.4,30.07,ENE,69,0.0,0.0,89,0.00,,SCT025CU,0.01,0.00,VWS V14.00,2013-06-25 05:52:00,
2013-06-25 01:57:00,76.0,72.5,30.07,ENE,69,0.0,0.0,89,0.00,,SCT025CU,0.01,0.00,VWS V14.00,2013-06-25 05:57:00,
2013-06-25 02:02:00,76.3,72.8,30.07,ENE,69,0.0,0.0,89,0.00,,SCT025CU,0.01,0.00,VWS V14.00,2013-06-25 06:02:00,
2013-06-25 02:07:00,76.4,73.2,30.07,ENE,69,0.0,0.0,90,0.00,,SCT025CU,0.01,0.00,VWS V14.00,2013-06-25 06:07:00,
2013-06-25 02:12:00,76.4,73.2,30.07,ENE,69,0.0,0.0,90,0.00,,SCT025CU,0.01,0.00,VWS V14.00,2013-06-25 06:12:00,
2013-06-25 02:17:00,76.5,73.3,30.07,ENE,69,0.0,0.0,90,0.00,,SCT025CU,0.01,0.00,VWS V14.00,2013-06-25 06:17:00,
2013-06-25 02:22:00,76.6,73.4,30.06,ENE,69,0.0,0.0,90,0.00,,SCT025CU,0.01,0.00,VWS V14.00,2013-06-25 06:22:00,
2013-06-25 02:27:00,76.6,73.4,30.06,ENE,69,0.0,0.0,90,0.00,,SCT025CU,0.01,0.00,VWS V14.00,2013-06-25 06:27:00,
2013-06-25 02:32:00,76.6,73.4,30.06,ENE,69,0.0,0.0,90,0.00,,SCT025CU,0.01,0.00,VWS V14.00,2013-06-25 06:32:00,
2013-06-25 02:37:00,76.5,73.3,30.05,ENE,69,0.0,0.0,90,0.00,,SCT025CU,0.01,0.00,VWS V14.00,2013-06-25 06:37:00,
2013-06-25 02:42:00,76.5,73.3,30.05,ENE,69,0.0,0.0,90,0.00,,SCT025CU,0.01,0.00,VWS V14.00,2013-06-25 06:42:00,
2013-06-25 02:47:00,76.5,73.3,30.05,ENE,69,0.0,0.0,90,0.00,,SCT025CU,0.01,0.00,VWS V14.00,2013-06-25 06:47:00,
2013-06-25 02:52:00,76.4,73.2,30.05,ENE,69,0.0,0.0,90,0.00,,SCT025CU,0.01,0.00,VWS V14.00,2013-06-25 06:52:00,
2013-06-25 02:57:00,76.4,73.2,30.05,ENE,69,0.0,0.0,90,0.00,,SCT025CU,0.01,0.00,VWS V14.00,2013-06-25 06:57:00,
2013-06-25 03:03:00,76.4,73.2,30.05,ENE,69,0.0,0.0,90,0.00,,SCT025CU,0.01,0.00,VWS V14.00,2013-06-25 07:03:00,
2013-06-25 03:08:00,76.4,73.2,30.04,ENE,69,0.0,0.0,90,0.00,,SCT025CU,0.01,0.00,VWS V14.00,2013-06-25 07:08:00,
2013-06-25 03:13:00,76.5,73.3,30.04,ENE,69,0.0,0.0,90,0.00,,SCT025CU,0.01,0.00,VWS V14.00,2013-06-25 07:13:00,
2013-06-25 03:18:00,76.6,73.4,30.04,ENE,69,0.0,0.0,90,0.00,,SCT025CU,0.01,0.00,VWS V14.00,2013-06-25 07:18:00,
2013-06-25 03:23:00,76.7,73.6,30.04,ENE,69,0.0,0.0,90,0.00,,SCT025CU,0.01,0.00,VWS V14.00,2013-06-25 07:23:00,
2013-06-25 03:28:00,76.7,73.6,30.03,ENE,69,0.0,0.0,90,0.00,,SCT025CU,0.01,0.00,VWS V14.00,2013-06-25 07:28:00,
2013-06-25 03:33:00,76.7,73.6,30.03,ENE,69,0.0,0.0,90,0.00,,SCT025CU,0.01,0.00,VWS V14.00,2013-06-25 07:33:00,
2013-06-25 03:38:00,76.7,73.6,30.03,ENE,69,0.0,0.0,90,0.00,,SCT025CU,0.01,0.00,VWS V14.00,2013-06-25 07:38:00,
2013-06-25 03:43:00,76.6,73.4,30.03,ENE,69,0.0,0.0,90,0.00,,SCT025CU,0.01,0.00,VWS V14.00,2013-06-25 07:43:00,
2013-06-25 03:48:00,76.6,73.4,30.03,ENE,69,0.0,0.0,90,0.00,,SCT025CU,0.01,0.00,VWS V14.00,2013-06-25 07:48:00,
2013-06-25 03:53:00,76.7,73.6,30.02,ENE,69,0.0,0.0,90,0.00,,SCT025CU,0.01,0.00,VWS V14.00,2013-06-25 07:53:00,
2013-06-25 03:58:00,76.7,73.6,30.02,ENE,69,0.0,1.0,90,0.00,,SCT025CU,0.01,0.00,VWS V14.00,2013-06-25 07:58:00,
2013-06-25 04:03:00,76.7,73.6,30.02,ENE,69,0.0,0.0,90,0.00,,SCT025CU,0.01,0.00,VWS V14.00,2013-06-25 08:03:00,
2013-06-25 04:08:00,76.6,73.4,30.02,ENE,69,0.0,3.0,90,0.00,,SCT025CU,0.01,0.00,VWS V14.00,2013-06-25 08:08:00,
2013-06-25 04:13:00,76.4,73.2,30.02,ENE,69,0.0,1.0,90,0.00,,SCT025CU,0.01,0.00,VWS V14.00,2013-06-25 08:13:00,
2013-06-25 04:18:00,76.4,73.2,30.03,ENE,69,0.0,0.0,90,0.00,,SCT025CU,0.01,0.00,VWS V14.00,2013-06-25 08:18:00,
2013-06-25 04:23:00,76.4,73.2,30.02,ENE,69,0.0,0.0,90,0.00,,SCT025CU,0.01,0.00,VWS V14.00,2013-06-25 08:23:00,
2013-06-25 04:28:00,76.4,73.2,30.02,ENE,69,0.0,0.0,90,0.00,,SCT025CU,0.01,0.00,VWS V14.00,2013-06-25 08:28:00,
2013-06-25 04:33:00,76.4,73.2,30.03,ENE,69,0.0,0.0,90,0.00,,SCT025CU,0.01,0.00,VWS V14.00,2013-06-25 08:33:00,
2013-06-25 04:38:00,76.4,73.2,30.03,ENE,69,0.0,0.0,90,0.00,,SCT025CU,0.01,0.00,VWS V14.00,2013-06-25 08:38:00,
2013-06-25 04:43:00,76.6,73.4,30.03,ENE,69,0.0,0.0,90,0.00,,SCT025CU,0.01,0.00,VWS V14.00,2013-06-25 08:43:00,
2013-06-25 04:48:00,76.7,73.6,30.03,ENE,69,0.0,1.0,90,0.00,,SCT025CU,0.01,0.00,VWS V14.00,2013-06-25 08:48:00,
2013-06-25 04:53:00,76.7,73.6,30.03,ENE,69,0.0,0.0,90,0.00,,SCT025CU,0.02,0.00,VWS V14.00,2013-06-25 08:53:00,
2013-06-25 04:58:00,76.8,73.7,30.03,ENE,69,0.0,0.0,90,0.00,,SCT025CU,0.02,0.00,VWS V14.00,2013-06-25 08:58:00,
2013-06-25 05:03:00,76.8,73.7,30.03,ENE,69,0.0,0.0,90,0.00,,SCT025CU,0.02,0.00,VWS V14.00,2013-06-25 09:03:00,
2013-06-25 05:08:00,76.7,73.6,30.03,ENE,69,0.0,0.0,90,0.00,,SCT025CU,0.02,0.00,VWS V14.00,2013-06-25 09:08:00,
2013-06-25 05:13:00,76.6,73.4,30.03,ENE,69,0.0,0.0,90,0.00,,SCT025CU,0.02,0.00,VWS V14.00,2013-06-25 09:13:00,
2013-06-25 05:18:00,76.5,73.3,30.03,ENE,69,0.0,0.0,90,0.00,,SCT025CU,0.02,0.00,VWS V14.00,2013-06-25 09:18:00,
2013-06-25 05:23:00,76.4,73.2,30.02,ENE,69,0.0,0.0,90,0.00,,SCT025CU,0.02,0.00,VWS V14.00,2013-06-25 09:23:00,
2013-06-25 05:28:00,76.5,73.3,30.02,ENE,69,0.0,0.0,90,0.00,,SCT025CU,0.02,0.00,VWS V14.00,2013-06-25 09:28:00,
2013-06-25 05:33:00,76.5,73.3,30.02,ENE,69,0.0,0.0,90,0.00,,SCT025CU,0.02,0.00,VWS V14.00,2013-06-25 09:33:00,
2013-06-25 05:38:00,76.4,73.2,30.02,ENE,69,0.0,1.0,90,0.00,,SCT025CU,0.02,0.00,VWS V14.00,2013-06-25 09:38:00,
2013-06-25 05:43:00,76.3,73.2,30.02,ENE,69,0.0,0.0,90,0.00,,SCT025CU,0.02,0.00,VWS V14.00,2013-06-25 09:43:00,
2013-06-25 05:48:00,76.2,72.7,30.02,ENE,69,0.0,0.0,89,0.00,,SCT025CU,0.02,0.00,VWS V14.00,2013-06-25 09:48:00,
2013-06-25 05:53:00,76.2,72.7,30.02,ENE,69,0.0,0.0,89,0.00,,SCT025CU,0.02,0.00,VWS V14.00,2013-06-25 09:53:00,
2013-06-25 05:58:00,76.2,72.7,30.02,ENE,69,0.0,0.0,89,0.00,,SCT025CU,0.02,0.00,VWS V14.00,2013-06-25 09:58:00,
2013-06-25 06:03:00,76.3,72.8,30.02,ENE,69,0.0,0.0,89,0.00,,SCT025CU,0.02,0.00,VWS V14.00,2013-06-25 10:03:00,
2013-06-25 06:08:00,76.3,72.8,30.02,ENE,69,0.0,0.0,89,0.00,,SCT025CU,0.02,0.00,VWS V14.00,2013-06-25 10:08:00,
2013-06-25 06:14:00,76.4,72.9,30.02,ENE,69,0.0,0.0,89,0.00,,SCT025CU,0.02,0.00,VWS V14.00,2013-06-25 10:14:00,
2013-06-25 06:19:00,76.5,73.0,30.02,ENE,69,0.0,0.0,89,0.00,,SCT025CU,0.02,0.00,VWS V14.00,2013-06-25 10:19:00,
2013-06-25 06:24:00,76.6,73.1,30.02,ENE,69,0.0,0.0,89,0.00,,SCT025CU,0.02,0.00,VWS V14.00,2013-06-25 10:24:00,
2013-06-25 06:29:00,76.7,73.2,30.02,ENE,69,0.0,0.0,89,0.00,,SCT025CU,0.02,0.00,VWS V14.00,2013-06-25 10:29:00,
2013-06-25 06:34:00,76.7,73.2,30.02,ENE,69,0.0,0.0,89,0.00,,SCT025CU,0.02,0.00,VWS V14.00,2013-06-25 10:34:00,
2013-06-25 06:39:00,76.6,73.1,30.02,ENE,69,0.0,0.0,89,0.00,,SCT025CU,0.02,18.00,VWS V14.00,2013-06-25 10:39:00,
2013-06-25 06:44:00,76.6,73.4,30.02,ENE,69,0.0,0.0,90,0.00,,SCT025CU,0.02,28.00,VWS V14.00,2013-06-25 10:44:00,
2013-06-25 06:49:00,76.6,73.4,30.02,ENE,69,0.0,0.0,90,0.00,,SCT025CU,0.02,37.00,VWS V14.00,2013-06-25 10:49:00,
2013-06-25 06:54:00,76.7,73.6,30.02,ENE,69,0.0,0.0,90,0.00,,SCT025CU,0.02,156.00,VWS V14.00,2013-06-25 10:54:00,
2013-06-25 06:59:00,77.0,73.8,30.02,ENE,69,0.0,0.0,90,0.00,,SCT025CU,0.02,192.00,VWS V14.00,2013-06-25 10:59:00,
2013-06-25 07:04:00,77.5,74.3,30.02,ENE,69,0.0,1.0,90,0.00,,SCT025CU,0.02,239.00,VWS V14.00,2013-06-25 11:04:00,
2013-06-25 07:09:00,77.9,74.7,30.03,ENE,69,2.0,5.0,90,0.00,,SCT025CU,0.02,225.00,VWS V14.00,2013-06-25 11:09:00,
2013-06-25 07:14:00,78.2,74.7,30.03,ENE,69,3.0,3.0,89,0.00,,SCT025CU,0.02,267.00,VWS V14.00,2013-06-25 11:14:00,
2013-06-25 07:19:00,78.6,75.1,30.03,ENE,72,4.0,6.0,89,0.00,,SCT025CU,0.02,299.00,VWS V14.00,2013-06-25 11:19:00,
2013-06-25 07:24:00,78.9,75.1,30.03,ESE,103,2.0,6.0,88,0.00,,SCT025CU,0.02,33.00,VWS V14.00,2013-06-25 11:24:00,
2013-06-25 07:29:00,79.1,74.9,30.03,ESE,103,3.0,4.0,87,0.00,,SCT025CU,0.02,83.00,VWS V14.00,2013-06-25 11:29:00,
2013-06-25 07:34:00,79.3,75.1,30.03,ESE,109,0.0,5.0,87,0.00,,SCT025CU,0.02,246.00,VWS V14.00,2013-06-25 11:34:00,
2013-06-25 07:39:00,79.6,75.4,30.03,ESE,111,4.0,5.0,87,0.00,,SCT025CU,0.02,225.00,VWS V14.00,2013-06-25 11:39:00,
2013-06-25 07:44:00,79.8,75.2,30.03,ESE,120,6.0,7.0,86,0.00,,SCT025CU,0.02,258.00,VWS V14.00,2013-06-25 11:44:00,
2013-06-25 07:49:00,80.1,75.5,30.03,SE,126,4.0,7.0,86,0.00,,SCT025CU,0.02,265.00,VWS V14.00,2013-06-25 11:49:00,
2013-06-25 07:54:00,80.4,75.5,30.03,SE,128,4.0,5.0,85,0.00,,SCT025CU,0.02,264.00,VWS V14.00,2013-06-25 11:54:00,
2013-06-25 07:59:00,80.7,75.8,30.03,SE,135,5.0,7.0,85,0.00,,SCT025CU,0.02,258.00,VWS V14.00,2013-06-25 11:59:00,
2013-06-25 08:04:00,81.1,75.8,30.04,SE,136,2.0,4.0,84,0.00,,SCT025CU,0.02,248.00,VWS V14.00,2013-06-25 12:04:00,
2013-06-25 08:09:00,81.4,76.1,30.03,SE,137,2.0,6.0,84,0.00,,SCT025CU,0.02,241.00,VWS V14.00,2013-06-25 12:09:00,
2013-06-25 08:14:00,81.8,76.1,30.03,SE,132,5.0,10.0,83,0.00,,SCT025CU,0.02,239.00,VWS V14.00,2013-06-25 12:14:00,
2013-06-25 08:19:00,82.0,76.3,30.04,SE,136,2.0,5.0,83,0.00,,SCT025CU,0.02,221.00,VWS V14.00,2013-06-25 12:19:00,
2013-06-25 08:24:00,82.3,76.3,30.03,SE,135,3.0,7.0,82,0.00,,SCT025CU,0.02,225.00,VWS V14.00,2013-06-25 12:24:00,
2013-06-25 08:29:00,82.4,76.4,30.04,SE,146,3.0,6.0,82,0.00,,SCT025CU,0.02,225.00,VWS V14.00,2013-06-25 12:29:00,
2013-06-25 08:34:00,82.5,76.1,30.04,SSE,150,9.0,10.0,81,0.00,,SCT030,0.02,62.00,VWS V14.00,2013-06-25 12:34:00,
2013-06-25 08:39:00,82.3,75.9,30.04,SSE,147,4.0,5.0,81,0.00,,SCT030,0.02,128.00,VWS V14.00,2013-06-25 12:39:00,
2013-06-25 08:44:00,82.4,76.4,30.04,SSE,150,5.0,9.0,82,0.00,,SCT030,0.02,113.00,VWS V14.00,2013-06-25 12:44:00,
2013-06-25 08:49:00,82.3,75.5,30.04,SSE,161,0.0,8.0,80,0.00,,SCT030,0.02,79.00,VWS V14.00,2013-06-25 12:49:00,
2013-06-25 08:54:00,82.1,75.3,30.04,SSE,158,1.0,6.0,80,0.00,,SCT030,0.02,65.00,VWS V14.00,2013-06-25 12:54:00,
2013-06-25 09:00:00,81.8,75.4,30.04,SSE,155,5.0,6.0,81,0.00,,SCT030,0.02,86.00,VWS V14.00,2013-06-25 13:00:00,
2013-06-25 09:05:00,81.8,75.0,30.04,SSE,155,6.0,7.0,80,0.00,,SCT030,0.02,207.00,VWS V14.00,2013-06-25 13:05:00,
2013-06-25 09:10:00,82.5,75.7,30.04,SE,146,3.0,11.0,80,0.00,,SCT030,0.02,211.00,VWS V14.00,2013-06-25 13:10:00,
2013-06-25 09:15:00,83.1,76.3,30.05,SE,141,3.0,9.0,80,0.00,,SCT030,0.02,70.00,VWS V14.00,2013-06-25 13:15:00,
2013-06-25 09:20:00,83.0,76.2,30.05,SE,130,4.0,9.0,80,0.00,,SCT030,0.02,232.00,VWS V14.00,2013-06-25 13:20:00,
2013-06-25 09:25:00,83.1,75.9,30.05,SE,138,4.0,5.0,79,0.00,,SCT030,0.02,195.00,VWS V14.00,2013-06-25 13:25:00,
2013-06-25 09:30:00,83.4,76.2,30.05,SSE,147,8.0,12.0,79,0.00,,SCT030,0.02,230.00,VWS V14.00,2013-06-25 13:30:00,
2013-06-25 09:35:00,83.7,75.7,30.05,SSE,147,2.0,11.0,77,0.00,,SCT030,0.02,200.00,VWS V14.00,2013-06-25 13:35:00,
2013-06-25 09:40:00,84.0,75.6,30.05,SE,145,10.0,11.0,76,0.00,,SCT030,0.02,237.00,VWS V14.00,2013-06-25 13:40:00,
2013-06-25 09:45:00,84.2,75.4,30.05,SSE,163,4.0,11.0,75,0.00,,SCT030,0.02,225.00,VWS V14.00,2013-06-25 13:45:00,
2013-06-25 09:50:00,84.4,76.0,30.05,South,170,3.0,10.0,76,0.00,,SCT030,0.02,84.00,VWS V14.00,2013-06-25 13:50:00,
2013-06-25 09:55:00,84.3,75.9,30.05,SSE,155,5.0,9.0,76,0.00,,SCT030,0.02,234.00,VWS V14.00,2013-06-25 13:55:00,
2013-06-25 10:00:00,84.4,76.0,30.05,ESE,108,12.0,12.0,76,0.00,,SCT030,0.02,186.00,VWS V14.00,2013-06-25 14:00:00,
2013-06-25 10:05:00,83.9,75.9,30.06,SE,143,4.0,8.0,77,0.00,,SCT030,0.02,72.00,VWS V14.00,2013-06-25 14:05:00,
2013-06-25 10:10:00,83.7,75.7,30.06,SSE,148,3.0,6.0,77,0.00,,SCT030,0.02,111.00,VWS V14.00,2013-06-25 14:10:00,
2013-06-25 10:15:00,83.7,76.1,30.06,SSE,161,4.0,9.0,78,0.00,,SCT030,0.02,84.00,VWS V14.00,2013-06-25 14:15:00,
2013-06-25 10:20:00,83.8,76.2,30.06,SSE,162,3.0,6.0,78,0.00,,SCT030,0.02,102.00,VWS V14.00,2013-06-25 14:20:00,
2013-06-25 10:25:00,83.9,75.5,30.06,SSE,162,3.0,5.0,76,0.00,,SCT030,0.02,274.00,VWS V14.00,2013-06-25 14:25:00,
2013-06-25 10:30:00,84.5,76.1,30.06,South,173,3.0,5.0,76,0.00,,SCT030,0.02,251.00,VWS V14.00,2013-06-25 14:30:00,
2013-06-25 10:35:00,85.1,75.5,30.06,South,171,1.0,7.0,73,0.00,,SCT030,0.02,91.00,VWS V14.00,2013-06-25 14:35:00,
2013-06-25 10:40:00,85.2,74.7,30.06,SSE,149,4.0,10.0,71,0.00,,SCT030,0.02,248.00,VWS V14.00,2013-06-25 14:40:00,
2013-06-25 10:45:00,85.5,75.4,30.06,SE,142,10.0,10.0,72,0.00,,SCT030,0.02,258.00,VWS V14.00,2013-06-25 14:45:00,
2013-06-25 10:50:00,85.6,76.0,30.06,SSE,157,9.0,10.0,73,0.00,,SCT030,0.02,241.00,VWS V14.00,2013-06-25 14:50:00,
2013-06-25 10:55:00,85.7,75.6,30.06,SSE,157,7.0,9.0,72,0.00,,SCT030,0.02,243.00,VWS V14.00,2013-06-25 14:55:00,
2013-06-25 11:00:00,85.5,75.4,30.06,SE,134,6.0,11.0,72,0.00,,SCT030,0.02,105.00,VWS V14.00,2013-06-25 15:00:00,
2013-06-25 11:05:00,85.0,75.8,30.06,ESE,119,4.0,7.0,74,0.00,,SCT030,0.02,95.00,VWS V14.00,2013-06-25 15:05:00,
2013-06-25 11:10:00,84.5,74.9,30.06,SSE,149,5.0,6.0,73,0.00,,SCT030,0.02,98.00,VWS V14.00,2013-06-25 15:10:00,
2013-06-25 11:15:00,84.5,75.7,30.06,ESE,112,10.0,12.0,75,0.00,,SCT030,0.02,102.00,VWS V14.00,2013-06-25 15:15:00,
2013-06-25 11:20:00,84.7,75.9,30.06,SSE,162,10.0,10.0,75,0.00,,SCT030,0.02,287.00,VWS V14.00,2013-06-25 15:20:00,
2013-06-25 11:25:00,85.4,76.2,30.06,SE,134,2.0,8.0,74,0.00,,SCT030,0.02,281.00,VWS V14.00,2013-06-25 15:25:00,
2013-06-25 11:30:00,85.8,76.2,30.06,SSE,158,2.0,6.0,73,0.00,,SCT030,0.02,214.00,VWS V14.00,2013-06-25 15:30:00,
2013-06-25 11:35:00,85.8,76.2,30.06,SSE,158,5.0,6.0,73,0.00,,BKN021CU,0.02,114.00,VWS V14.00,2013-06-25 15:35:00,
2013-06-25 11:40:00,86.0,76.3,30.07,South,171,2.0,8.0,73,0.00,,BKN021CU,0.02,93.00,VWS V14.00,2013-06-25 15:40:00,
2013-06-25 11:45:00,84.9,74.9,30.07,South,182,14.0,14.0,72,0.00,,BKN021CU,0.03,93.00,VWS V14.00,2013-06-25 15:45:00,
2013-06-25 11:50:00,83.5,74.8,30.07,SSE,167,7.0,13.0,75,0.00,,BKN021CU,0.03,181.00,VWS V14.00,2013-06-25 15:50:00,
2013-06-25 11:55:00,83.2,75.6,30.07,SSE,161,7.0,9.0,78,0.00,,BKN021CU,0.03,141.00,VWS V14.00,2013-06-25 15:55:00,
2013-06-25 12:00:00,82.8,75.6,30.06,SSE,167,3.0,7.0,79,0.00,,BKN021CU,0.03,239.00,VWS V14.00,2013-06-25 16:00:00,
2013-06-25 12:05:00,82.9,76.5,30.06,SSE,163,7.0,7.0,81,0.00,,BKN021CU,0.03,160.00,VWS V14.00,2013-06-25 16:05:00,
2013-06-25 12:10:00,83.1,75.9,30.06,SSE,163,4.0,6.0,79,0.00,,BKN021CU,0.03,113.00,VWS V14.00,2013-06-25 16:10:00,
2013-06-25 12:15:00,83.4,76.2,30.06,SSE,165,5.0,6.0,79,0.00,,BKN021CU,0.03,118.00,VWS V14.00,2013-06-25 16:15:00,
2013-06-25 12:20:00,83.8,76.2,30.06,SSE,166,7.0,9.0,78,0.00,,BKN021CU,0.03,163.00,VWS V14.00,2013-06-25 16:20:00,
2013-06-25 12:26:00,84.5,76.5,30.05,SSE,165,2.0,4.0,77,0.00,,BKN021CU,0.03,251.00,VWS V14.00,2013-06-25 16:26:00,
2013-06-25 12:31:00,85.5,76.3,30.05,SSE,157,6.0,14.0,74,0.00,,BKN021CU,0.03,250.00,VWS V14.00,2013-06-25 16:31:00,
2013-06-25 12:36:00,86.1,76.4,30.06,South,181,6.0,13.0,73,0.00,,SCT025CU,0.03,281.00,VWS V14.00,2013-06-25 16:36:00,
2013-06-25 12:41:00,86.3,76.2,30.06,SE,138,13.0,13.0,72,0.00,,SCT025CU,0.03,151.00,VWS V14.00,2013-06-25 16:41:00,
2013-06-25 12:46:00,86.0,75.9,30.06,SSE,150,4.0,10.0,72,0.00,,SCT025CU,0.03,105.00,VWS V14.00,2013-06-25 16:46:00,
2013-06-25 12:47:00,85.9,75.8,30.06,SE,145,10.0,13.0,72,0.00,,SCT025CU,0.03,132.00,VWS V14.00,2013-06-25 16:47:00,
2013-06-25 12:52:00,86.0,76.8,30.05,SSE,151,6.0,12.0,74,0.00,,SCT025CU,0.03,130.00,VWS V14.00,2013-06-25 16:52:00,
2013-06-25 12:57:00,86.3,76.6,30.05,SE,128,6.0,13.0,73,0.00,,SCT025CU,0.03,111.00,VWS V14.00,2013-06-25 16:57:00,
2013-06-25 13:02:00,86.1,76.4,30.06,SE,146,3.0,9.0,73,0.00,,SCT025CU,0.03,258.00,VWS V14.00,2013-06-25 17:02:00,
2013-06-25 13:07:00,86.5,76.0,30.06,South,169,3.0,10.0,71,0.00,,SCT025CU,0.03,134.00,VWS V14.00,2013-06-25 17:07:00,
2013-06-25 13:12:00,86.7,76.2,30.06,South,178,10.0,13.0,71,0.00,,SCT025CU,0.03,113.00,VWS V14.00,2013-06-25 17:12:00,
2013-06-25 13:17:00,86.5,75.6,30.05,SSE,153,4.0,9.0,70,0.00,,SCT025CU,0.03,274.00,VWS V14.00,2013-06-25 17:17:00,
2013-06-25 13:22:00,86.8,75.4,30.05,South,172,4.0,12.0,69,0.00,,SCT025CU,0.03,276.00,VWS V14.00,2013-06-25 17:22:00,
2013-06-25 13:28:00,86.9,75.9,30.05,South,169,5.0,12.0,70,0.00,,SCT025CU,0.03,251.00,VWS V14.00,2013-06-25 17:28:00,
2013-06-25 13:33:00,87.3,76.8,30.05,SE,140,6.0,12.0,71,0.00,,BKN023CU,0.03,139.00,VWS V14.00,2013-06-25 17:33:00,
2013-06-25 13:38:00,87.4,77.3,30.05,SSE,160,3.0,14.0,72,0.00,,BKN023CU,0.03,251.00,VWS V14.00,2013-06-25 17:38:00,
2013-06-25 13:43:00,87.2,77.5,30.04,SSE,155,10.0,12.0,73,0.00,,BKN023CU,0.03,227.00,VWS V14.00,2013-06-25 17:43:00,
2013-06-25 13:48:00,87.1,77.4,30.04,SE,144,10.0,13.0,73,0.00,,BKN023CU,0.03,98.00,VWS V14.00,2013-06-25 17:48:00,
2013-06-25 13:53:00,86.6,76.1,30.04,South,184,7.0,13.0,71,0.00,,BKN023CU,0.03,211.00,VWS V14.00,2013-06-25 17:53:00,
2013-06-25 13:58:00,86.5,76.4,30.04,South,170,7.0,11.0,72,0.00,,BKN023CU,0.03,211.00,VWS V14.00,2013-06-25 17:58:00,
2013-06-25 14:03:00,86.5,76.8,30.03,SE,144,10.0,14.0,73,0.00,,BKN023CU,0.03,214.00,VWS V14.00,2013-06-25 18:03:00,
2013-06-25 14:08:00,86.5,76.8,30.03,South,184,9.0,12.0,73,0.00,,BKN023CU,0.03,202.00,VWS V14.00,2013-06-25 18:08:00,
2013-06-25 14:13:00,86.4,76.7,30.03,South,169,9.0,11.0,73,0.00,,BKN023CU,0.03,202.00,VWS V14.00,2013-06-25 18:13:00,
2013-06-25 14:18:00,86.3,76.6,30.04,South,175,10.0,12.0,73,0.00,,BKN023CU,0.03,218.00,VWS V14.00,2013-06-25 18:18:00,
2013-06-25 14:23:00,86.3,75.8,30.04,SE,138,12.0,12.0,71,0.00,,BKN023CU,0.03,214.00,VWS V14.00,2013-06-25 18:23:00,
2013-06-25 14:28:00,86.7,76.2,30.04,SE,146,5.0,10.0,71,0.00,,BKN023CU,0.03,204.00,VWS V14.00,2013-06-25 18:28:00,
2013-06-25 14:33:00,86.8,76.3,30.04,SSE,157,7.0,10.0,71,0.00,,SCT023TCU,0.03,195.00,VWS V14.00,2013-06-25 18:33:00,
2013-06-25 14:38:00,86.7,76.2,30.03,SSE,161,6.0,13.0,71,0.00,,SCT023TCU,0.03,195.00,VWS V14.00,2013-06-25 18:38:00,
2013-06-25 14:43:00,86.9,75.9,30.03,ESE,119,7.0,11.0,70,0.00,,SCT023TCU,0.03,192.00,VWS V14.00,2013-06-25 18:43:00,
2013-06-25 14:48:00,87.3,76.3,30.03,SSE,158,8.0,14.0,70,0.00,,SCT023TCU,0.03,199.00,VWS V14.00,2013-06-25 18:48:00,
2013-06-25 14:53:00,87.0,76.0,30.03,SSE,153,11.0,13.0,70,0.00,,SCT023TCU,0.03,183.00,VWS V14.00,2013-06-25 18:53:00,
2013-06-25 14:58:00,87.2,76.2,30.02,SSE,161,2.0,10.0,70,0.00,,SCT023TCU,0.03,181.00,VWS V14.00,2013-06-25 18:58:00,
2013-06-25 15:03:00,87.2,75.8,30.02,SE,142,7.0,13.0,69,0.00,,SCT023TCU,0.03,179.00,VWS V14.00,2013-06-25 19:03:00,
2013-06-25 15:08:00,86.8,75.8,30.02,SE,143,6.0,15.0,70,0.00,,SCT023TCU,0.03,178.00,VWS V14.00,2013-06-25 19:08:00,
2013-06-25 15:13:00,86.6,75.7,30.01,South,177,7.0,15.0,70,0.00,,SCT023TCU,0.03,179.00,VWS V14.00,2013-06-25 19:13:00,
2013-06-25 15:18:00,86.6,75.7,30.01,ESE,120,2.0,12.0,70,0.00,,SCT023TCU,0.03,176.00,VWS V14.00,2013-06-25 19:18:00,
2013-06-25 15:23:00,86.7,75.8,30.01,SSE,161,12.0,13.0,70,0.00,,SCT023TCU,0.03,178.00,VWS V14.00,2013-06-25 19:23:00,
2013-06-25 15:28:00,86.7,75.3,30.01,SSE,165,9.0,13.0,69,0.00,,SCT023TCU,0.03,185.00,VWS V14.00,2013-06-25 19:28:00,
2013-06-25 15:33:00,86.9,75.9,30.02,SSE,149,13.0,14.0,70,0.00,,SCT023TCU,0.03,185.00,VWS V14.00,2013-06-25 19:33:00,
2013-06-25 15:38:00,86.9,76.8,30.02,SSE,155,11.0,14.0,72,0.00,,SCT023TCU,0.03,204.00,VWS V14.00,2013-06-25 19:38:00,
2013-06-25 15:43:00,86.4,76.3,30.02,SSE,152,6.0,13.0,72,0.00,,SCT023TCU,0.03,225.00,VWS V14.00,2013-06-25 19:43:00,
2013-06-25 15:48:00,86.1,76.8,30.01,South,183,4.0,12.0,74,0.00,,SCT023TCU,0.03,171.00,VWS V14.00,2013-06-25 19:48:00,
2013-06-25 15:53:00,86.0,77.2,30.01,SSE,153,5.0,7.0,75,0.00,,SCT023TCU,0.03,218.00,VWS V14.00,2013-06-25 19:53:00,
2013-06-25 15:58:00,86.2,76.9,30.01,South,172,11.0,17.0,74,0.00,,SCT023TCU,0.03,221.00,VWS V14.00,2013-06-25 19:58:00,
2013-06-25 16:03:00,86.3,77.0,30.01,SSE,167,6.0,11.0,74,0.00,,SCT023TCU,0.03,88.00,VWS V14.00,2013-06-25 20:03:00,
2013-06-25 16:08:00,86.4,76.3,30.01,South,182,14.0,15.0,72,0.00,,SCT023TCU,0.03,213.00,VWS V14.00,2013-06-25 20:08:00,
2013-06-25 16:13:00,86.6,76.9,30.01,SSE,159,7.0,11.0,73,0.00,,SCT023TCU,0.03,120.00,VWS V14.00,2013-06-25 20:13:00,
2013-06-25 16:18:00,85.6,76.8,30.01,South,173,4.0,11.0,75,0.00,,SCT023TCU,0.03,88.00,VWS V14.00,2013-06-25 20:18:00,
2013-06-25 16:23:00,85.5,76.7,30.01,South,180,7.0,11.0,75,0.00,,SCT023TCU,0.03,186.00,VWS V14.00,2013-06-25 20:23:00,
2013-06-25 16:28:00,86.1,76.8,30.00,South,170,4.0,7.0,74,0.00,,SCT023TCU,0.03,144.00,VWS V14.00,2013-06-25 20:28:00,
2013-06-25 16:33:00,86.3,76.2,30.00,South,171,10.0,15.0,72,0.00,,SCT023TCU,0.03,102.00,VWS V14.00,2013-06-25 20:33:00,
2013-06-25 16:38:00,85.7,75.6,30.00,SSE,149,6.0,15.0,72,0.00,,SCT023TCU,0.03,213.00,VWS V14.00,2013-06-25 20:38:00,
2013-06-25 16:43:00,85.2,75.6,30.00,SSE,160,6.0,7.0,73,0.00,,SCT023TCU,0.03,67.00,VWS V14.00,2013-06-25 20:43:00,
2013-06-25 16:48:00,85.4,76.6,30.00,SSE,158,6.0,10.0,75,0.00,,SCT023TCU,0.03,174.00,VWS V14.00,2013-06-25 20:48:00,
2013-06-25 16:53:00,85.8,76.6,30.00,SSE,148,3.0,12.0,74,0.00,,SCT023TCU,0.03,165.00,VWS V14.00,2013-06-25 20:53:00,
2013-06-25 16:58:00,85.9,76.2,30.00,SSE,159,10.0,14.0,73,0.00,,SCT023TCU,0.03,172.00,VWS V14.00,2013-06-25 20:58:00,
2013-06-25 17:03:00,85.5,76.3,30.00,SE,134,3.0,15.0,74,0.00,,SCT023TCU,0.03,183.00,VWS V14.00,2013-06-25 21:03:00,
2013-06-25 17:08:00,85.7,76.1,30.00,SSE,161,8.0,17.0,73,0.00,,SCT023TCU,0.03,165.00,VWS V14.00,2013-06-25 21:08:00,
2013-06-25 17:13:00,85.7,76.1,30.00,SE,145,4.0,12.0,73,0.00,,SCT023TCU,0.03,169.00,VWS V14.00,2013-06-25 21:13:00,
2013-06-25 17:19:00,85.9,75.8,30.00,SSE,152,6.0,14.0,72,0.00,,SCT023TCU,0.03,178.00,VWS V14.00,2013-06-25 21:19:00,
2013-06-25 17:24:00,85.5,76.3,30.00,South,184,10.0,14.0,74,0.00,,SCT023TCU,0.03,98.00,VWS V14.00,2013-06-25 21:24:00,
2013-06-25 17:29:00,85.2,76.0,30.00,SSE,150,5.0,12.0,74,0.00,,SCT023TCU,0.03,114.00,VWS V14.00,2013-06-25 21:29:00,
2013-06-25 17:34:00,85.2,76.0,30.00,SE,144,18.0,19.0,74,0.00,,SCT023TCU,0.03,123.00,VWS V14.00,2013-06-25 21:34:00,
2013-06-25 17:39:00,85.1,75.5,30.00,SSE,160,6.0,13.0,73,0.00,,SCT023TCU,0.03,62.00,VWS V14.00,2013-06-25 21:39:00,
2013-06-25 17:44:00,84.8,75.2,30.00,SSE,156,5.0,14.0,73,0.00,,SCT023TCU,0.03,84.00,VWS V14.00,2013-06-25 21:44:00,
2013-06-25 17:49:00,84.6,74.6,30.00,SSE,159,12.0,12.0,72,0.00,,SCT023TCU,0.03,70.00,VWS V14.00,2013-06-25 21:49:00,
2013-06-25 17:54:00,84.6,75.0,30.00,South,182,4.0,10.0,73,0.00,,SCT023TCU,0.03,54.00,VWS V14.00,2013-06-25 21:54:00,
2013-06-25 17:59:00,84.2,74.6,30.01,SSE,154,3.0,10.0,73,0.00,,SCT023TCU,0.03,54.00,VWS V14.00,2013-06-25 21:59:00,
2013-06-25 18:04:00,84.1,74.5,30.00,South,174,6.0,10.0,73,0.00,,SCT023TCU,0.03,54.00,VWS V14.00,2013-06-25 22:04:00,
2013-06-25 18:09:00,83.9,74.3,30.01,SSE,157,11.0,13.0,73,0.00,,SCT023TCU,0.03,49.00,VWS V14.00,2013-06-25 22:09:00,
2013-06-25 18:14:00,83.9,75.5,30.01,SSE,155,12.0,12.0,76,0.00,,SCT023TCU,0.03,35.00,VWS V14.00,2013-06-25 22:14:00,
2013-06-25 18:19:00,83.6,75.6,30.00,SSE,164,4.0,7.0,77,0.00,,SCT023TCU,0.03,30.00,VWS V14.00,2013-06-25 22:19:00,
2013-06-25 18:24:00,83.4,75.4,30.00,South,184,9.0,11.0,77,0.00,,SCT023TCU,0.03,32.00,VWS V14.00,2013-06-25 22:24:00,
2013-06-25 18:29:00,83.2,75.6,29.99,South,176,4.0,15.0,78,0.00,,SCT023TCU,0.03,28.00,VWS V14.00,2013-06-25 22:29:00,
2013-06-25 18:34:00,83.0,75.4,30.00,SSE,161,5.0,9.0,78,0.00,,SCT020,0.03,26.00,VWS V14.00,2013-06-25 22:34:00,
2013-06-25 18:39:00,83.0,75.8,30.00,South,188,4.0,6.0,79,0.00,,SCT020,0.03,25.00,VWS V14.00,2013-06-25 22:39:00,
2013-06-25 18:44:00,82.9,75.7,30.01,South,187,4.0,7.0,79,0.00,,SCT020,0.03,26.00,VWS V14.00,2013-06-25 22:44:00,
2013-06-25 18:49:00,82.9,75.7,30.01,South,180,9.0,12.0,79,0.00,,SCT020,0.03,25.00,VWS V14.00,2013-06-25 22:49:00,
2013-06-25 18:54:00,82.9,76.1,30.01,SSW,200,4.0,11.0,80,0.00,,SCT020,0.03,21.00,VWS V14.00,2013-06-25 22:54:00,
2013-06-25 18:59:00,82.7,75.9,30.01,SSW,206,4.0,7.0,80,0.00,,SCT020,0.03,21.00,VWS V14.00,2013-06-25 22:59:00,
2013-06-25 19:04:00,82.6,76.2,30.01,South,178,6.0,7.0,81,0.00,,SCT020,0.03,19.00,VWS V14.00,2013-06-25 23:04:00,
2013-06-25 19:09:00,82.5,76.1,30.01,South,188,0.0,5.0,81,0.00,,SCT020,0.03,19.00,VWS V14.00,2013-06-25 23:09:00,
2013-06-25 19:14:00,82.4,75.6,30.01,South,177,4.0,8.0,80,0.00,,SCT020,0.03,19.00,VWS V14.00,2013-06-25 23:14:00,
2013-06-25 19:19:00,82.1,74.6,30.01,South,185,2.0,6.0,78,0.00,,SCT020,0.03,16.00,VWS V14.00,2013-06-25 23:19:00,
2013-06-25 19:24:00,82.1,74.6,30.02,South,178,8.0,9.0,78,0.00,,SCT020,0.03,16.00,VWS V14.00,2013-06-25 23:24:00,
2013-06-25 19:30:00,82.0,74.5,30.02,South,183,0.0,10.0,78,0.00,,SCT020,0.03,12.00,VWS V14.00,2013-06-25 23:30:00,
2013-06-25 19:35:00,81.8,74.7,30.02,SSE,160,6.0,6.0,79,0.00,,SCT020,0.03,11.00,VWS V14.00,2013-06-25 23:35:00,
2013-06-25 19:40:00,81.5,74.7,30.01,SSE,156,7.0,11.0,80,0.00,,SCT020,0.03,9.00,VWS V14.00,2013-06-25 23:40:00,
2013-06-25 19:45:00,81.3,74.5,30.01,South,170,5.0,6.0,80,0.00,,SCT020,0.03,7.00,VWS V14.00,2013-06-25 23:45:00,
2013-06-25 19:50:00,81.2,74.4,30.00,SSE,149,2.0,5.0,80,0.00,,SCT020,0.03,5.00,VWS V14.00,2013-06-25 23:50:00,
2013-06-25 19:55:00,81.1,74.0,30.00,SSE,153,0.0,1.0,79,0.00,,SCT020,0.03,5.00,VWS V14.00,2013-06-25 23:55:00,
2013-06-25 20:00:00,81.2,74.1,30.01,SSE,153,3.0,5.0,79,0.00,,SCT020,0.03,0.00,VWS V14.00,2013-06-26 00:00:00,
2013-06-25 20:05:00,81.2,74.1,30.01,SSE,153,1.0,3.0,79,0.00,,SCT020,0.03,0.00,VWS V14.00,2013-06-26 00:05:00,
2013-06-25 20:10:00,81.3,74.2,30.01,SSE,154,3.0,5.0,79,0.00,,SCT020,0.03,0.00,VWS V14.00,2013-06-26 00:10:00,
2013-06-25 20:15:00,81.3,74.2,30.01,South,169,7.0,9.0,79,0.00,,SCT020,0.03,0.00,VWS V14.00,2013-06-26 00:15:00,
2013-06-25 20:20:00,81.3,74.2,30.00,SSE,168,4.0,7.0,79,0.00,,SCT020,0.03,0.00,VWS V14.00,2013-06-26 00:20:00,
2013-06-25 20:25:00,81.3,74.2,30.00,SSE,167,6.0,11.0,79,0.00,,SCT020,0.03,0.00,VWS V14.00,2013-06-26 00:25:00,
2013-06-25 20:30:00,81.2,74.1,30.00,SSE,162,2.0,10.0,79,0.00,,SCT020,0.03,0.00,VWS V14.00,2013-06-26 00:30:00,
2013-06-25 20:35:00,81.2,74.1,30.00,South,187,5.0,5.0,79,0.00,,SCT020,0.03,0.00,VWS V14.00,2013-06-26 00:35:00,
2013-06-25 20:40:00,81.0,73.5,30.00,South,173,4.0,7.0,78,0.00,,SCT020,0.03,0.00,VWS V14.00,2013-06-26 00:40:00,
2013-06-25 20:45:00,81.0,73.1,30.00,SSW,193,1.0,2.0,77,0.00,,SCT020,0.03,0.00,VWS V14.00,2013-06-26 00:45:00,
2013-06-25 20:50:00,80.9,73.0,30.00,SSW,193,0.0,3.0,77,0.00,,SCT020,0.03,0.00,VWS V14.00,2013-06-26 00:50:00,
2013-06-25 20:55:00,80.9,73.0,30.00,SSW,193,0.0,0.0,77,0.00,,SCT020,0.03,0.00,VWS V14.00,2013-06-26 00:55:00,
2013-06-25 21:00:00,80.9,73.0,30.00,SSW,192,3.0,6.0,77,0.00,,SCT020,0.03,0.00,VWS V14.00,2013-06-26 01:00:00,
2013-06-25 21:05:00,80.9,73.4,29.99,South,178,6.0,6.0,78,0.00,,SCT020,0.03,0.00,VWS V14.00,2013-06-26 01:05:00,
2013-06-25 21:10:00,80.9,73.4,29.99,South,176,0.0,0.0,78,0.00,,SCT020,0.03,0.00,VWS V14.00,2013-06-26 01:10:00,
2013-06-25 21:15:00,80.8,73.3,29.99,South,169,0.0,5.0,78,0.00,,SCT020,0.03,0.00,VWS V14.00,2013-06-26 01:15:00,
2013-06-25 21:20:00,80.8,73.7,29.99,South,169,0.0,0.0,79,0.00,,SCT020,0.03,0.00,VWS V14.00,2013-06-26 01:20:00,
2013-06-25 21:25:00,80.8,73.7,30.00,South,169,0.0,0.0,79,0.00,,SCT020,0.03,0.00,VWS V14.00,2013-06-26 01:25:00,
2013-06-25 21:30:00,80.7,73.6,30.00,South,169,0.0,0.0,79,0.00,,SCT020,0.03,0.00,VWS V14.00,2013-06-26 01:30:00,
2013-06-25 21:35:00,80.8,74.1,30.00,South,169,0.0,0.0,80,0.00,,SCT020,0.03,0.00,VWS V14.00,2013-06-26 01:35:00,
2013-06-25 21:40:00,80.8,74.4,30.01,South,169,0.0,0.0,81,0.00,,SCT020,0.03,0.00,VWS V14.00,2013-06-26 01:40:00,
2013-06-25 21:45:00,80.8,74.8,30.01,South,169,0.0,0.0,82,0.00,,SCT020,0.03,0.00,VWS V14.00,2013-06-26 01:45:00,
2013-06-25 21:50:00,80.7,74.3,30.01,South,169,0.0,0.0,81,0.00,,SCT020,0.03,0.00,VWS V14.00,2013-06-26 01:50:00,
2013-06-25 21:55:00,80.7,74.7,30.01,SSE,168,3.0,4.0,82,0.00,,SCT020,0.03,0.00,VWS V14.00,2013-06-26 01:55:00,
2013-06-25 22:00:00,80.7,74.7,30.01,SSE,168,0.0,1.0,82,0.00,,SCT020,0.03,0.00,VWS V14.00,2013-06-26 02:00:00,
2013-06-25 22:05:00,80.6,74.6,30.01,SSE,168,0.0,0.0,82,0.00,,SCT020,0.03,0.00,VWS V14.00,2013-06-26 02:05:00,
2013-06-25 22:10:00,80.6,75.0,30.01,South,171,0.0,5.0,83,0.00,,SCT020,0.03,0.00,VWS V14.00,2013-06-26 02:10:00,
2013-06-25 22:15:00,80.6,75.0,30.02,South,171,4.0,4.0,83,0.00,,SCT020,0.03,0.00,VWS V14.00,2013-06-26 02:15:00,
2013-06-25 22:20:00,80.6,75.0,30.02,South,171,0.0,1.0,83,0.00,,SCT020,0.03,0.00,VWS V14.00,2013-06-26 02:20:00,
2013-06-25 22:25:00,80.7,75.1,30.02,South,171,0.0,1.0,83,0.00,,SCT020,0.03,0.00,VWS V14.00,2013-06-26 02:25:00,
2013-06-25 22:30:00,80.7,75.1,30.03,South,171,0.0,0.0,83,0.00,,SCT020,0.03,0.00,VWS V14.00,2013-06-26 02:30:00,
2013-06-25 22:35:00,80.7,75.4,30.03,South,171,0.0,3.0,84,0.00,,SCT020,0.03,0.00,VWS V14.00,2013-06-26 02:35:00,
2013-06-25 22:40:00,80.7,75.4,30.03,South,171,5.0,5.0,84,0.00,,SCT020,0.03,0.00,VWS V14.00,2013-06-26 02:40:00,
2013-06-25 22:45:00,80.8,75.5,30.03,South,171,3.0,4.0,84,0.00,,SCT020,0.03,0.00,VWS V14.00,2013-06-26 02:45:00,
2013-06-25 22:50:00,80.8,75.5,30.03,South,171,0.0,0.0,84,0.00,,SCT020,0.03,0.00,VWS V14.00,2013-06-26 02:50:00,
2013-06-25 22:55:00,80.8,75.5,30.03,South,171,0.0,1.0,84,0.00,,SCT020,0.03,0.00,VWS V14.00,2013-06-26 02:55:00,
2013-06-25 23:00:00,80.8,75.5,30.03,South,171,0.0,5.0,84,0.00,,SCT020,0.03,0.00,VWS V14.00,2013-06-26 03:00:00,
2013-06-25 23:05:00,80.8,75.5,30.02,South,171,4.0,5.0,84,0.00,,SCT020,0.03,0.00,VWS V14.00,2013-06-26 03:05:00,
2013-06-25 23:11:00,80.9,75.6,30.03,South,171,2.0,4.0,84,0.00,,SCT020,0.03,0.00,VWS V14.00,2013-06-26 03:11:00,
2013-06-25 23:16:00,80.9,75.6,30.03,South,171,1.0,5.0,84,0.00,,SCT020,0.03,0.00,VWS V14.00,2013-06-26 03:16:00,
2013-06-25 23:21:00,80.9,75.6,30.03,South,170,5.0,5.0,84,0.00,,SCT020,0.03,0.00,VWS V14.00,2013-06-26 03:21:00,
2013-06-25 23:26:00,81.0,75.7,30.03,South,170,4.0,4.0,84,0.00,,SCT020,0.03,0.00,VWS V14.00,2013-06-26 03:26:00,
2013-06-25 23:31:00,81.0,75.7,30.03,South,169,4.0,6.0,84,0.00,,SCT020,0.03,0.00,VWS V14.00,2013-06-26 03:31:00,
2013-06-25 23:36:00,81.0,75.7,30.03,South,169,4.0,4.0,84,0.00,,SCT020,0.03,0.00,VWS V14.00,2013-06-26 03:36:00,
2013-06-25 23:41:00,81.0,75.7,30.03,SSE,166,0.0,6.0,84,0.00,,SCT020,0.03,0.00,VWS V14.00,2013-06-26 03:41:00,
2013-06-25 23:46:00,81.1,75.4,30.03,SSE,165,4.0,4.0,83,0.00,,SCT020,0.03,0.00,VWS V14.00,2013-06-26 03:46:00,
2013-06-25 23:51:00,81.1,75.4,30.03,SSE,165,2.0,7.0,83,0.00,,SCT020,0.03,0.00,VWS V14.00,2013-06-26 03:51:00,
2013-06-25 23:57:00,81.1,75.4,30.03,SSE,162,2.0,2.0,83,0.00,,SCT020,0.03,0.00,VWS V14.00,2013-06-26 03:57:00,